Home   Weather   Bourges   Past weeks
Flag for France

Past Weather in Bourges, Centre-Val de Loire, France — Yesterday and Last 2 Weeks

Now
38 °F

Chilly.


Feels Like: 31 °F
Forecast: 29 / 40 °F
Wind: 13 mph from East

Location: Bourges

Current Time: Nov 18, 2018 at 11:11:33 am

Latest Report: Nov 18, 2018 at 10:00 am


Visibility: 7 mi

Pressure: 30.14 "Hg

Humidity: 85%

Dew Point: 34 °F

Location of BourgesLocation

Past Weather in Bourges — Graph

°F

Bourges Temperature Yesterday

Maximum temperature yesterday: 47 °F (at 3:00 pm)
Minimum temperature yesterday: 38 °F (at 9:00 am)
Average temperature yesterday: 43 °F

High & Low Weather Summary for the Past Weeks

 TemperatureHumidityPressure
High66 °F (Nov 5, 2:00 pm)100% (Nov 14, 9:00 am)30.44 "Hg (Nov 14, 9:00 am)
Low33 °F (Nov 18, 8:00 am)51% (Nov 11, 2:00 pm)29.58 "Hg (Nov 6, 6:00 am)
Average50 °F86%30.00 "Hg
* Reported Nov 3 9:00 am — Nov 18 9:00 am, Bourges. Weather by CustomWeather, © 2018

Note: Actual official high and low records may vary slightly from our data, if they occured in-between our weather recording intervals... More about our weather records

Advertising

Bourges Weather History for the Previous 24 Hours

Scroll right to see more
 ConditionsComfort  
Time TempWeatherWind HumidityBarometerVisibility
9:00 am
Sun, Nov 18
35 °FChilly.6 mph91%30.14 "Hg4 mi
8:00 am33 °FChilly.10 mph92%30.13 "Hg4 mi
7:00 am34 °FChilly.10 mph92%30.13 "Hg4 mi
6:00 am34 °FChilly.8 mph90%30.13 "Hg4 mi
5:00 am35 °FChilly.8 mph90%30.13 "Hg5 mi
4:00 am36 °FChilly.9 mph89%30.14 "Hg5 mi
3:00 am37 °FChilly.12 mph88%30.14 "Hg6 mi
2:00 am37 °FChilly.9 mph87%30.15 "Hg6 mi
1:00 am38 °FChilly.8 mph87%30.14 "Hg6 mi
12:00 am37 °FChilly.8 mph86%30.14 "Hg6 mi
11:00 pm
Sat, Nov 17
39 °FChilly.12 mph82%30.14 "Hg7 mi
10:00 pm39 °FChilly.10 mph81%30.15 "Hg7 mi
9:00 pm41 °FQuite cool.12 mph78%30.14 "Hg9 mi
7:00 pm44 °FQuite cool.10 mph77%30.13 "Hg7 mi
6:00 pm46 °FCool.10 mph73%30.13 "Hg9 mi
5:00 pm46 °FCool.8 mph73%30.13 "Hg12 mi
4:00 pm47 °FCool.12 mph73%30.12 "Hg12 mi
3:00 pm47 °FCool.12 mph75%30.12 "Hg12 mi
2:00 pm45 °FQuite cool.8 mph79%30.13 "Hg12 mi
1:00 pm43 °FQuite cool.7 mph82%30.16 "Hg10 mi
12:00 pm40 °FQuite cool.8 mph87%30.18 "Hg6 mi
11:00 am40 °FChilly.9 mph90%30.19 "Hg4 mi
Weather by CustomWeather, © 2018

See weather overview